Superior, WI

10:10 PM CDT on April 24, 2017 (GMT -0500)
Bong

Weather History for KSUW - December, 2011

Change the Weather History Date:

Wednesday, December 21, 2011

  Actual Average Record
Temperature  
Mean Temperature 28 °F -  
Max Temperature 33 °F 23 °F 42 °F (2003)
Min Temperature 24 °F 4 °F -24 °F (1989)
Degree Days  
Heating Degree Days 36    
Moisture  
Dew Point 19 °F    
Average Humidity 68    
Maximum Humidity 80    
Minimum Humidity 59    
Precipitation  
Precipitation 0.00 in - - ()
Sea Level Pressure  
Sea Level Pressure 29.73 in    
Wind  
Wind Speed 8 mph (West)    
Max Wind Speed 13 mph    
Max Gust Speed 18 mph    
Visibility 10 miles    
Events      
Averages and records for this station are not official NWS values.
T = Trace of Precipitation, MM = Missing Value Source: NWS Daily Summary

Daily Weather History Graph

Daily Weather History Graph

Search for Another Location

Airport or City:

Trip Planner

Search our weather history database for the weather conditions in past years. The results will help you decide how hot, cold, wet, or windy it might be!

Date:

Astronomy

Dec. 21, 2011 Rise Set
Actual Time 7:49 AM CST 4:22 PM CST
Civil Twilight 7:14 AM CST 4:58 PM CST
Nautical Twilight 6:36 AM CST 5:36 PM CST
Astronomical Twilight 5:59 AM CST 6:13 PM CST
Moon 4:19 AM CST (12/21) 1:45 PM CST (12/21)
Length of Visible Light 9h 43m
Length of Day
8h 33m
Waning Crescent, 12% of the Moon is Illuminated
Dec 21
Waning Crescent
Dec 24
New
Jan 1
First Quarter
Jan 9
Full
Jan 16
Last Quarter

Hourly Weather History & Observations

Time (CST) Temp. Windchill Dew Point Humidity Pressure Visibility Wind Dir Wind Speed Gust Speed Precip Events Conditions
12:15 AM 26.6 °F 16.2 °F 17.6 °F 69% 29.63 in 10.0 mi SW 11.5 mph - N/A   Clear
12:35 AM 26.6 °F 17.5 °F 17.6 °F 69% 29.64 in 10.0 mi SW 9.2 mph - N/A   Clear
12:55 AM 26.6 °F 16.8 °F 17.6 °F 69% 29.63 in 10.0 mi SW 10.4 mph - N/A   Clear
1:15 AM 24.8 °F 14.6 °F 17.6 °F 74% 29.63 in 10.0 mi SW 10.4 mph - N/A   Clear
1:35 AM 24.8 °F 16.1 °F 17.6 °F 74% 29.63 in 10.0 mi WSW 8.1 mph - N/A   Clear
1:55 AM 24.8 °F 16.1 °F 17.6 °F 74% 29.63 in 10.0 mi WSW 8.1 mph - N/A   Mostly Cloudy
2:15 AM 24.8 °F 17.9 °F 17.6 °F 74% 29.63 in 10.0 mi WSW 5.8 mph - N/A   Overcast
2:35 AM 24.8 °F 19.1 °F 17.6 °F 74% 29.64 in 10.0 mi WSW 4.6 mph - N/A   Overcast
2:55 AM 24.8 °F 16.1 °F 17.6 °F 74% 29.63 in 10.0 mi SW 8.1 mph - N/A   Overcast
3:15 AM 24.8 °F 16.9 °F 17.6 °F 74% 29.62 in 10.0 mi WSW 6.9 mph - N/A   Scattered Clouds
3:35 AM 24.8 °F 16.1 °F 17.6 °F 74% 29.61 in 10.0 mi WSW 8.1 mph - N/A   Mostly Cloudy
3:55 AM 24.8 °F 15.3 °F 17.6 °F 74% 29.60 in 10.0 mi SW 9.2 mph - N/A   Overcast
4:15 AM 24.8 °F 16.1 °F 17.6 °F 74% 29.60 in 10.0 mi WSW 8.1 mph - N/A   Overcast
4:35 AM 24.8 °F 17.9 °F 17.6 °F 74% 29.60 in 10.0 mi WSW 5.8 mph - N/A   Overcast
5:15 AM 24.8 °F 16.9 °F 17.6 °F 74% 29.60 in 10.0 mi SW 6.9 mph - N/A   Mostly Cloudy
5:55 AM 24.8 °F 17.9 °F 17.6 °F 74% 29.61 in 10.0 mi SW 5.8 mph - N/A   Overcast
6:15 AM 24.8 °F 15.3 °F 17.6 °F 74% 29.61 in 10.0 mi SW 9.2 mph - N/A   Scattered Clouds
6:35 AM 24.8 °F 17.9 °F 17.6 °F 74% 29.62 in 10.0 mi SW 5.8 mph - N/A   Clear
6:55 AM 24.8 °F 17.9 °F 17.6 °F 74% 29.62 in 10.0 mi WSW 5.8 mph - N/A   Scattered Clouds
7:15 AM 24.8 °F 20.5 °F 17.6 °F 74% 29.62 in 10.0 mi WSW 3.5 mph - N/A   Mostly Cloudy
7:35 AM 24.8 °F 17.9 °F 17.6 °F 74% 29.62 in 10.0 mi WSW 5.8 mph - N/A   Overcast
7:55 AM 26.6 °F 20.0 °F 17.6 °F 69% 29.63 in 10.0 mi WSW 5.8 mph - N/A   Overcast
8:15 AM 26.6 °F 20.0 °F 17.6 °F 69% 29.63 in 10.0 mi SW 5.8 mph - N/A   Scattered Clouds
8:35 AM 26.6 °F 19.1 °F 17.6 °F 69% 29.63 in 10.0 mi SW 6.9 mph - N/A   Clear
8:55 AM 26.6 °F 18.2 °F 17.6 °F 69% 29.63 in 10.0 mi SW 8.1 mph - N/A   Clear
9:15 AM 26.6 °F 18.2 °F 17.6 °F 69% 29.64 in 10.0 mi SW 8.1 mph - N/A   Scattered Clouds
9:55 AM 28.4 °F 19.7 °F 19.4 °F 69% 29.65 in 10.0 mi SW 9.2 mph - N/A   Clear
10:15 AM 28.4 °F 20.4 °F 19.4 °F 69% 29.66 in 10.0 mi SW 8.1 mph - N/A   Clear
10:35 AM 28.4 °F 21.2 °F 19.4 °F 69% 29.66 in 10.0 mi WSW 6.9 mph - N/A   Clear
10:55 AM 28.4 °F 20.4 °F 19.4 °F 69% 29.67 in 10.0 mi WSW 8.1 mph - N/A   Clear
11:35 AM 30.2 °F 23.4 °F 19.4 °F 64% 29.67 in 10.0 mi SW 6.9 mph - N/A   Clear
11:55 AM 30.2 °F 23.4 °F 19.4 °F 64% 29.67 in 10.0 mi WSW 6.9 mph - N/A   Clear
12:15 PM 30.2 °F 23.4 °F 19.4 °F 64% 29.67 in 10.0 mi SW 6.9 mph - N/A   Clear
12:35 PM 30.2 °F 23.4 °F 19.4 °F 64% 29.68 in 10.0 mi SW 6.9 mph - N/A   Clear
1:15 PM 32.0 °F 25.6 °F 21.2 °F 64% 29.69 in 10.0 mi WSW 6.9 mph - N/A   Scattered Clouds
1:35 PM 32.0 °F 26.4 °F 21.2 °F 64% 29.69 in 10.0 mi WSW 5.8 mph - N/A   Mostly Cloudy
1:55 PM 33.8 °F 29.6 °F 21.2 °F 60% 29.70 in 10.0 mi SW 4.6 mph - N/A   Scattered Clouds
2:15 PM 33.8 °F 29.6 °F 21.2 °F 60% 29.71 in 10.0 mi WSW 4.6 mph - N/A   Scattered Clouds
2:35 PM 33.8 °F - 21.2 °F 60% 29.72 in 10.0 mi Calm Calm - N/A   Mostly Cloudy
3:15 PM 33.8 °F 27.7 °F 24.8 °F 70% 29.74 in 10.0 mi NNW 6.9 mph - N/A   Mostly Cloudy
3:35 PM 33.8 °F 27.7 °F 24.8 °F 70% 29.75 in 10.0 mi NNW 6.9 mph - N/A   Overcast
3:55 PM 33.8 °F 30.8 °F 24.8 °F 70% 29.75 in 10.0 mi North 3.5 mph - N/A   Mostly Cloudy
4:15 PM 33.8 °F 30.8 °F 24.8 °F 70% 29.76 in 10.0 mi NNW 3.5 mph - N/A   Scattered Clouds
4:35 PM 32.0 °F 28.7 °F 24.8 °F 75% 29.77 in 10.0 mi NW 3.5 mph - N/A   Clear
4:55 PM 30.2 °F - 24.8 °F 80% 29.78 in 10.0 mi Calm Calm - N/A   Scattered Clouds
5:15 PM 30.2 °F - 24.8 °F 80% 29.79 in 10.0 mi Calm Calm - N/A   Mostly Cloudy
5:35 PM 30.2 °F - 24.8 °F 80% 29.80 in 10.0 mi Calm Calm - N/A   Overcast
5:55 PM 30.2 °F 26.7 °F 24.8 °F 80% 29.81 in 10.0 mi WNW 3.5 mph - N/A   Overcast
6:35 PM 32.0 °F 23.0 °F 19.4 °F 60% 29.85 in 10.0 mi NNW 11.5 mph - N/A   Mostly Cloudy
6:55 PM 30.2 °F 21.9 °F 17.6 °F 60% 29.87 in 10.0 mi NNW 9.2 mph - N/A   Scattered Clouds
7:35 PM 30.2 °F 20.2 °F 17.6 °F 60% 29.89 in 10.0 mi NNW 12.7 mph 18.4 mph N/A   Overcast
7:55 PM 30.2 °F 21.9 °F 17.6 °F 60% 29.90 in 10.0 mi NNW 9.2 mph - N/A   Overcast
8:15 PM 28.4 °F 23.3 °F 17.6 °F 64% 29.91 in 10.0 mi North 4.6 mph - N/A   Mostly Cloudy
8:35 PM 30.2 °F 25.4 °F 17.6 °F 60% 29.92 in 10.0 mi North 4.6 mph - N/A   Overcast
9:15 PM 30.2 °F 21.9 °F 17.6 °F 60% 29.94 in 10.0 mi NNW 9.2 mph - N/A   Overcast
9:35 PM 30.2 °F 23.4 °F 17.6 °F 60% 29.95 in 10.0 mi NNW 6.9 mph 11.5 mph N/A   Overcast
9:55 PM 30.2 °F 20.8 °F 17.6 °F 60% 29.96 in 10.0 mi NNW 11.5 mph - N/A   Overcast
10:15 PM 30.2 °F 21.3 °F 17.6 °F 60% 29.97 in 10.0 mi North 10.4 mph 16.1 mph N/A   Overcast
10:35 PM 30.2 °F 21.9 °F 17.6 °F 60% 29.98 in 10.0 mi NNW 9.2 mph - N/A   Overcast
10:55 PM 30.2 °F 21.9 °F 17.6 °F 60% 29.99 in 10.0 mi NW 9.2 mph - N/A   Overcast
11:15 PM 28.4 °F 19.1 °F 15.8 °F 59% 30.00 in 10.0 mi NNW 10.4 mph 16.1 mph N/A   Overcast
11:35 PM 28.4 °F 19.7 °F 15.8 °F 59% 30.01 in 10.0 mi NNW 9.2 mph - N/A   Overcast
11:55 PM 28.4 °F 21.2 °F 15.8 °F 59% 30.02 in 10.0 mi North 6.9 mph - N/A   Overcast